TimeEDT,TemperatureF,Dew PointF,Humidity,Sea Level PressureIn,VisibilityMPH,Wind Direction,Wind SpeedMPH,Gust SpeedMPH,PrecipitationIn,Events,Conditions,WindDirDegrees,DateUTC
12:15 AM,75.2,75.2,100,30.05,5.0,Calm,Calm,-,N/A,Rain,Light Rain,0,2013-08-03 04:15:00
12:35 AM,75.2,75.2,100,30.05,4.0,Calm,Calm,-,N/A,Rain,Light Rain,0,2013-08-03 04:35:00
12:55 AM,75.2,75.2,100,30.04,5.0,Calm,Calm,-,N/A,Rain,Light Rain,0,2013-08-03 04:55:00
1:15 AM,75.2,75.2,100,30.04,4.0,Calm,Calm,-,N/A,Rain,Light Rain,0,2013-08-03 05:15:00
1:35 AM,75.2,75.2,100,30.05,3.0,Calm,Calm,-,N/A,Rain,Light Rain,0,2013-08-03 05:35:00
1:55 AM,75.2,75.2,100,30.04,5.0,Calm,Calm,-,N/A,Rain,Light Rain,0,2013-08-03 05:55:00
2:15 AM,75.2,75.2,100,30.04,4.0,Calm,Calm,-,N/A,,Partly Cloudy,0,2013-08-03 06:15:00
2:35 AM,73.4,73.4,100,30.04,3.0,Calm,Calm,-,N/A,,Scattered Clouds,0,2013-08-03 06:35:00
2:55 AM,73.4,73.4,100,30.03,2.0,Calm,Calm,-,N/A,,Scattered Clouds,0,2013-08-03 06:55:00
3:15 AM,73.4,73.4,100,30.03,1.5,Calm,Calm,-,N/A,,Clear,0,2013-08-03 07:15:00
3:35 AM,73.4,73.4,100,30.02,1.8,Calm,Calm,-,N/A,,Clear,0,2013-08-03 07:35:00
3:55 AM,73.4,73.4,100,30.01,0.2,Calm,Calm,-,N/A,Fog,Fog,0,2013-08-03 07:55:00
4:15 AM,71.6,71.6,100,30.01,0.2,Calm,Calm,-,N/A,Fog,Fog,0,2013-08-03 08:15:00
4:35 AM,71.6,71.6,100,30.01,2.0,Calm,Calm,-,N/A,Rain,Light Rain,0,2013-08-03 08:35:00
4:55 AM,71.6,71.6,100,30.02,2.0,Calm,Calm,-,N/A,Rain,Light Rain,0,2013-08-03 08:55:00
5:15 AM,71.6,71.6,100,30.02,0.8,Calm,Calm,-,N/A,,Mist,0,2013-08-03 09:15:00
5:35 AM,71.6,71.6,100,30.02,2.0,Calm,Calm,-,N/A,Rain,Light Rain,0,2013-08-03 09:35:00
5:55 AM,71.6,71.6,100,30.03,1.5,Calm,Calm,-,N/A,,Mostly Cloudy,0,2013-08-03 09:55:00
6:15 AM,73.4,73.4,100,30.03,1.2,Calm,Calm,-,N/A,,Overcast,0,2013-08-03 10:15:00
6:35 AM,73.4,73.4,100,30.03,1.8,Calm,Calm,-,N/A,,Overcast,0,2013-08-03 10:35:00
6:55 AM,73.4,73.4,100,30.03,1.2,Calm,Calm,-,N/A,,Overcast,0,2013-08-03 10:55:00
7:15 AM,73.4,73.4,100,30.04,1.5,Calm,Calm,-,N/A,,Overcast,0,2013-08-03 11:15:00
7:35 AM,75.2,75.2,100,30.04,2.0,Calm,Calm,-,N/A,,Overcast,0,2013-08-03 11:35:00
7:55 AM,75.2,75.2,100,30.04,2.5,Calm,Calm,-,N/A,,Overcast,0,2013-08-03 11:55:00
8:15 AM,75.2,75.2,100,30.05,3.0,Calm,Calm,-,N/A,,Overcast,0,2013-08-03 12:15:00
8:35 AM,75.2,75.2,100,30.04,5.0,Calm,Calm,-,N/A,,Overcast,0,2013-08-03 12:35:00
8:55 AM,77.0,77.0,100,30.05,7.0,SW,4.6,-,N/A,,Overcast,220,2013-08-03 12:55:00
9:15 AM,77.0,77.0,100,30.05,7.0,SW,3.5,-,N/A,,Overcast,230,2013-08-03 13:15:00
9:35 AM,78.8,78.8,100,30.05,9.0,SW,3.5,-,N/A,,Overcast,230,2013-08-03 13:35:00
9:55 AM,80.6,80.6,100,30.05,9.0,Calm,Calm,-,N/A,Rain,Light Rain,0,2013-08-03 13:55:00
10:15 AM,82.4,80.6,94,30.05,10.0,WSW,4.6,-,N/A,,Overcast,240,2013-08-03 14:15:00
10:35 AM,84.2,80.6,89,30.04,10.0,Calm,Calm,-,N/A,,Mostly Cloudy,0,2013-08-03 14:35:00
10:55 AM,86.0,77.0,74,30.04,10.0,South,4.6,-,N/A,,Partly Cloudy,190,2013-08-03 14:55:00
11:15 AM,89.6,77.0,66,30.04,10.0,Calm,Calm,-,N/A,,Partly Cloudy,0,2013-08-03 15:15:00
11:35 AM,91.4,77.0,63,30.04,10.0,Calm,Calm,-,N/A,,Partly Cloudy,0,2013-08-03 15:35:00
11:55 AM,91.4,77.0,63,30.03,10.0,SSW,3.5,-,N/A,,Scattered Clouds,210,2013-08-03 15:55:00
12:15 PM,91.4,77.0,63,30.04,10.0,South,4.6,-,N/A,,Scattered Clouds,170,2013-08-03 16:15:00
12:35 PM,91.4,77.0,63,30.03,10.0,South,3.5,-,N/A,,Partly Cloudy,190,2013-08-03 16:35:00
12:55 PM,93.2,77.0,59,30.02,10.0,South,3.5,-,N/A,,Partly Cloudy,180,2013-08-03 16:55:00
1:15 PM,93.2,75.2,56,30.02,10.0,South,4.6,-,N/A,,Partly Cloudy,190,2013-08-03 17:15:00
1:35 PM,95.0,75.2,53,30.02,10.0,SW,4.6,-,N/A,,Partly Cloudy,220,2013-08-03 17:35:00
1:55 PM,93.2,75.2,56,30.01,10.0,SW,3.5,-,N/A,,Scattered Clouds,220,2013-08-03 17:55:00
2:15 PM,93.2,71.6,49,30.00,10.0,WSW,4.6,-,N/A,,Scattered Clouds,240,2013-08-03 18:15:00
2:35 PM,95.0,71.6,47,30.00,10.0,WSW,6.9,-,N/A,,Partly Cloudy,250,2013-08-03 18:35:00
2:55 PM,93.2,71.6,49,30.00,10.0,SW,3.5,-,N/A,,Scattered Clouds,220,2013-08-03 18:55:00
3:15 PM,93.2,71.6,49,29.99,10.0,SW,4.6,-,N/A,,Partly Cloudy,230,2013-08-03 19:15:00
3:35 PM,93.2,73.4,52,29.98,10.0,SW,5.8,-,N/A,,Clear,220,2013-08-03 19:35:00
3:55 PM,93.2,73.4,52,29.98,10.0,SSW,3.5,-,N/A,,Partly Cloudy,200,2013-08-03 19:55:00
4:15 PM,91.4,71.6,52,29.98,10.0,WSW,10.4,-,N/A,,Scattered Clouds,250,2013-08-03 20:15:00
4:35 PM,91.4,71.6,52,29.97,10.0,SW,5.8,-,N/A,,Partly Cloudy,230,2013-08-03 20:35:00
4:55 PM,91.4,73.4,55,29.97,10.0,West,9.2,-,N/A,,Clear,260,2013-08-03 20:55:00
5:15 PM,91.4,71.6,52,29.96,10.0,WSW,8.1,-,N/A,,Clear,250,2013-08-03 21:15:00
5:35 PM,91.4,71.6,52,29.97,10.0,West,5.8,-,N/A,,Clear,270,2013-08-03 21:35:00
5:55 PM,91.4,71.6,52,29.97,10.0,WSW,5.8,-,N/A,,Clear,250,2013-08-03 21:55:00
6:15 PM,89.6,71.6,55,29.96,10.0,WSW,5.8,-,N/A,,Clear,250,2013-08-03 22:15:00
6:35 PM,89.6,73.4,59,29.96,10.0,West,4.6,-,N/A,,Clear,270,2013-08-03 22:35:00
6:55 PM,87.8,73.4,62,29.96,10.0,Calm,Calm,-,N/A,,Clear,0,2013-08-03 22:55:00
7:15 PM,86.0,75.2,70,29.96,10.0,Calm,Calm,-,N/A,,Clear,0,2013-08-03 23:15:00
7:35 PM,82.4,77.0,84,29.97,10.0,Calm,Calm,-,N/A,,Clear,0,2013-08-03 23:35:00
7:55 PM,80.6,78.8,94,29.97,8.0,Calm,Calm,-,N/A,,Clear,0,2013-08-03 23:55:00
8:15 PM,78.8,78.8,100,29.97,5.0,Calm,Calm,-,N/A,,Clear,0,2013-08-04 00:15:00
8:35 PM,77.0,77.0,100,29.98,3.0,Calm,Calm,-,N/A,,Clear,0,2013-08-04 00:35:00
8:55 PM,75.2,75.2,100,29.98,4.0,Calm,Calm,-,N/A,,Clear,0,2013-08-04 00:55:00
9:15 PM,75.2,75.2,100,29.98,3.0,Calm,Calm,-,N/A,,Clear,0,2013-08-04 01:15:00
9:35 PM,75.2,75.2,100,29.99,4.0,Calm,Calm,-,N/A,Rain,Light Rain,0,2013-08-04 01:35:00
9:55 PM,73.4,73.4,100,29.99,3.0,Calm,Calm,-,N/A,,Clear,0,2013-08-04 01:55:00
10:15 PM,73.4,73.4,100,29.99,3.0,Calm,Calm,-,N/A,Rain,Light Rain,0,2013-08-04 02:15:00
10:35 PM,73.4,73.4,100,29.99,3.0,Calm,Calm,-,N/A,Rain,Light Rain,0,2013-08-04 02:35:00
10:55 PM,73.4,73.4,100,29.99,3.0,Calm,Calm,-,N/A,Rain,Light Rain,0,2013-08-04 02:55:00
11:15 PM,73.4,73.4,100,30.00,3.0,Calm,Calm,-,N/A,Rain,Light Rain,0,2013-08-04 03:15:00
11:35 PM,71.6,71.6,100,30.00,3.0,Calm,Calm,-,N/A,Rain,Light Rain,0,2013-08-04 03:35:00
11:55 PM,71.6,71.6,100,29.99,3.0,Calm,Calm,-,N/A,,Clear,0,2013-08-04 03:55:00